contact:dominique.lefevre@mio.osupytheas.fr, maurice.libes@osupytheas.fr, didier.mallarino@osupytheas.fr
Project:EMSO http://www.emso-fr.org/EMSO-France
Depth: 2436.0 m
Title:EMSO Ligure Ouest : Data MII capteur AQUADOPP
Date,Latitude,Longitude,X_East,Y_North,Z_Up,Amplitude_X,Amplitude_Y,Amplitude_Z,Batterie,SoundSpeed,Heading,Pitch,Roll,Pressure,TIS,Speed,Direction
, degrees North, degrees East, m.s-1, m.s-1,m.s-1, 1, 1, 1, Volt, m.s-1, degree, degree, degree, dbar, degree_C, m.s-1, degree
2022-08-08T00:04:03,42.805,6.029,-0.021,-0.007,-0.027,104.0,102.0,101.0,13.4,1505.2,319.5,-0.7,1.8,2470.976,13.28,0.022,251.6
2022-08-08T00:07:03,42.805,6.029,-0.033,0.012,0.003,102.0,103.0,101.0,13.3,1505.2,329.5,-0.7,1.8,2470.966,13.28,0.035,290.0
2022-08-08T00:10:03,42.805,6.029,-0.013,0.002,-0.019,104.0,103.0,101.0,13.3,1505.2,324.0,-0.8,1.8,2470.96,13.29,0.013,278.7
2022-08-08T00:13:03,42.805,6.029,-0.039,0.007,-0.026,104.0,103.0,100.0,13.4,1505.2,332.4,-0.8,1.8,2470.952,13.29,0.039,280.2
2022-08-08T00:16:03,42.805,6.029,-0.02,0.0,-0.021,103.0,102.0,101.0,13.3,1505.2,320.3,-0.8,1.8,2470.963,13.29,0.02,270.0
2022-08-08T00:19:03,42.805,6.029,-0.018,0.004,-0.021,104.0,101.0,101.0,13.3,1505.2,320.1,-0.8,1.8,2470.955,13.29,0.018,282.5
2022-08-08T00:22:03,42.805,6.029,-0.019,-0.006,-0.012,102.0,102.0,101.0,13.3,1505.2,320.3,-0.7,1.8,2470.938,13.29,0.019,252.5
2022-08-08T00:25:03,42.805,6.029,-0.02,0.02,-0.03,103.0,103.0,101.0,13.3,1505.2,333.6,-0.8,1.9,2470.954,13.29,0.028,315.0
2022-08-08T00:28:03,42.805,6.029,-0.02,-0.002,-0.042,103.0,102.0,101.0,13.4,1505.2,328.6,-0.7,1.8,2470.953,13.29,0.02,264.3
2022-08-08T00:31:03,42.805,6.029,-0.005,0.002,-0.032,102.0,103.0,100.0,13.4,1505.2,328.7,-0.7,1.8,2470.955,13.29,0.005,291.8
2022-08-08T00:34:03,42.805,6.029,-0.022,0.0,-0.006,102.0,103.0,102.0,13.4,1505.2,324.6,-0.8,1.8,2470.955,13.29,0.022,270.0
2022-08-08T00:37:03,42.805,6.029,-0.023,0.014,-0.029,103.0,102.0,101.0,13.4,1505.2,322.6,-0.8,1.9,2470.95,13.29,0.026,301.3
2022-08-08T00:40:03,42.805,6.029,-0.016,-0.001,-0.031,102.0,103.0,101.0,13.4,1505.2,325.1,-0.8,1.8,2470.979,13.29,0.016,266.4
2022-08-08T00:43:03,42.805,6.029,-0.028,-0.005,-0.014,103.0,102.0,102.0,13.3,1505.2,324.9,-0.7,1.8,2470.974,13.29,0.028,259.9
2022-08-08T00:46:03,42.805,6.029,-0.025,0.012,-0.032,103.0,103.0,101.0,13.3,1505.2,323.5,-0.8,1.8,2470.956,13.29,0.027,295.6
2022-08-08T00:49:03,42.805,6.029,0.019,-0.007,-0.024,103.0,103.0,101.0,13.4,1505.2,329.5,-0.8,1.8,2470.938,13.29,0.02,110.2
2022-08-08T00:52:03,42.805,6.029,-0.012,-0.013,-0.017,103.0,102.0,102.0,13.4,1505.2,320.7,-0.7,1.8,2470.936,13.29,0.017,222.7
2022-08-08T00:55:03,42.805,6.029,-0.035,-0.014,-0.034,103.0,103.0,102.0,13.4,1505.2,324.3,-0.7,1.8,2470.961,13.29,0.037,248.2
2022-08-08T00:58:03,42.805,6.029,-0.029,0.0,-0.026,102.0,103.0,102.0,13.3,1505.2,332.3,-0.8,1.8,2470.945,13.29,0.028,270.0
2022-08-08T01:04:03,42.805,6.029,-0.028,-0.009,-0.03,104.0,103.0,104.0,13.4,1505.2,329.8,-0.8,1.8,2470.993,13.28,0.029,252.2
2022-08-08T01:07:03,42.805,6.029,-0.034,-0.017,-0.035,103.0,103.0,101.0,13.4,1505.2,324.2,-0.8,1.8,2470.98,13.28,0.038,243.4
2022-08-08T01:10:03,42.805,6.029,-0.005,-0.019,-0.017,103.0,103.0,102.0,13.4,1505.2,325.0,-0.7,1.8,2471.007,13.28,0.019,194.7
2022-08-08T01:13:03,42.805,6.029,-0.011,-0.011,-0.016,104.0,103.0,101.0,13.4,1505.2,321.4,-0.8,1.8,2470.941,13.29,0.015,225.0
2022-08-08T01:16:03,42.805,6.029,0.0,-0.004,0.004,102.0,103.0,101.0,13.4,1505.2,321.9,-0.7,1.8,2470.967,13.29,0.004,180.0
2022-08-08T01:19:03,42.805,6.029,-0.005,-0.002,-0.037,104.0,103.0,101.0,13.4,1505.2,326.4,-0.7,1.8,2470.928,13.29,0.005,248.2
2022-08-08T01:22:03,42.805,6.029,-0.023,-0.02,-0.039,103.0,102.0,102.0,13.4,1505.2,332.6,-0.7,1.8,2470.973,13.29,0.03,229.0
2022-08-08T01:25:03,42.805,6.029,-0.028,-0.012,-0.056,102.0,104.0,102.0,13.4,1505.2,330.6,-0.7,1.9,2470.957,13.29,0.03,246.8
2022-08-08T01:28:03,42.805,6.029,0.007,-0.014,-0.003,103.0,103.0,101.0,13.3,1505.2,319.6,-0.7,1.8,2470.998,13.29,0.015,153.4
2022-08-08T01:31:03,42.805,6.029,0.002,-0.015,-0.037,102.0,105.0,101.0,13.3,1505.2,323.8,-0.8,1.8,2470.967,13.29,0.015,172.4
2022-08-08T01:34:03,42.805,6.029,-0.02,-0.01,-0.01,102.0,104.0,101.0,13.4,1505.2,325.1,-0.8,1.8,2470.974,13.29,0.022,243.4
2022-08-08T01:37:03,42.805,6.029,-0.006,-0.006,-0.018,104.0,101.0,101.0,13.4,1505.2,319.4,-0.8,1.8,2470.973,13.29,0.008,225.0
2022-08-08T01:40:03,42.805,6.029,-0.006,-0.028,-0.045,104.0,102.0,101.0,13.4,1505.2,324.1,-0.8,1.8,2470.945,13.29,0.028,192.1
2022-08-08T01:43:03,42.805,6.029,-0.03,0.0,-0.052,104.0,103.0,101.0,13.4,1505.2,327.8,-0.8,1.8,2470.979,13.29,0.03,270.0
2022-08-08T01:46:03,42.805,6.029,-0.023,0.01,0.011,103.0,103.0,101.0,13.4,1505.2,328.7,-0.8,1.8,2470.95,13.29,0.025,293.5
2022-08-08T01:49:03,42.805,6.029,0.0,-0.018,-0.014,104.0,101.0,102.0,13.3,1505.2,319.9,-0.8,1.8,2470.971,13.29,0.018,180.0
2022-08-08T01:52:03,42.805,6.029,-0.025,-0.001,-0.036,102.0,103.0,102.0,13.4,1505.2,327.6,-0.8,1.8,2470.99,13.29,0.025,267.7
2022-08-08T01:55:03,42.805,6.029,-0.031,-0.004,-0.014,104.0,103.0,101.0,13.3,1505.2,323.6,-0.8,1.8,2470.983,13.29,0.031,262.7
2022-08-08T01:58:03,42.805,6.029,-0.006,-0.006,-0.053,103.0,103.0,102.0,13.4,1505.2,331.8,-0.7,1.8,2470.961,13.29,0.008,225.0
2022-08-08T02:04:03,42.805,6.029,-0.003,-0.005,-0.018,103.0,101.0,101.0,13.4,1505.2,330.7,-0.8,1.8,2470.982,13.28,0.005,211.0
2022-08-08T02:07:03,42.805,6.029,-0.014,0.002,-0.003,103.0,103.0,101.0,13.4,1505.2,331.0,-0.7,1.8,2470.977,13.28,0.014,278.1
2022-08-08T02:10:03,42.805,6.029,-0.019,-0.001,-0.037,104.0,102.0,101.0,13.4,1505.2,331.5,-0.8,1.8,2471.002,13.28,0.019,267.0
2022-08-08T02:13:03,42.805,6.029,-0.011,0.0,-0.014,103.0,103.0,101.0,13.4,1505.2,322.3,-0.8,1.8,2470.981,13.28,0.011,270.0
2022-08-08T02:16:03,42.805,6.029,-0.025,-0.003,-0.026,103.0,104.0,101.0,13.4,1505.2,319.6,-0.8,1.8,2470.975,13.29,0.025,263.2
2022-08-08T02:19:03,42.805,6.029,-0.042,0.013,-0.017,104.0,101.0,102.0,13.4,1505.2,330.0,-0.8,1.8,2470.972,13.29,0.043,287.2
2022-08-08T02:22:03,42.805,6.029,-0.012,-0.011,-0.036,104.0,103.0,101.0,13.3,1505.2,327.6,-0.8,1.8,2471.009,13.29,0.016,227.5
2022-08-08T02:25:03,42.805,6.029,-0.018,0.008,-0.02,102.0,104.0,100.0,13.3,1505.2,322.1,-0.8,1.8,2471.016,13.29,0.019,294.0
2022-08-08T02:28:03,42.805,6.029,-0.027,0.005,-0.009,103.0,102.0,101.0,13.3,1505.2,323.7,-0.8,1.8,2470.978,13.29,0.027,280.5
2022-08-08T02:31:03,42.805,6.029,-0.036,0.0,-0.012,102.0,102.0,102.0,13.4,1505.2,324.2,-0.7,1.8,2470.929,13.29,0.036,270.0
2022-08-08T02:34:03,42.805,6.029,0.002,0.004,-0.047,104.0,103.0,100.0,13.3,1505.2,325.4,-0.8,1.8,2470.985,13.29,0.004,26.6
2022-08-08T02:37:03,42.805,6.029,-0.031,-0.019,-0.035,103.0,103.0,101.0,13.4,1505.2,325.4,-0.7,1.8,2470.977,13.29,0.036,238.5
2022-08-08T02:40:03,42.805,6.029,-0.028,0.015,0.0,103.0,103.0,101.0,13.4,1505.2,322.5,-0.7,1.8,2470.987,13.29,0.031,298.2
2022-08-08T02:43:03,42.805,6.029,-0.028,-0.025,-0.057,102.0,103.0,102.0,13.3,1505.2,328.7,-0.7,1.9,2471.0,13.29,0.037,228.2
2022-08-08T02:46:03,42.805,6.029,-0.002,-0.011,-0.014,103.0,102.0,102.0,13.4,1505.2,323.0,-0.8,1.8,2470.996,13.29,0.011,190.3
2022-08-08T02:49:03,42.805,6.029,-0.021,0.0,-0.032,102.0,103.0,101.0,13.4,1505.2,326.4,-0.8,1.8,2470.935,13.29,0.021,270.0
2022-08-08T02:52:03,42.805,6.029,-0.011,-0.008,-0.047,103.0,104.0,101.0,13.4,1505.2,320.9,-0.8,1.8,2470.959,13.29,0.013,234.0
2022-08-08T02:55:03,42.805,6.029,-0.009,0.006,-0.034,103.0,104.0,101.0,13.4,1505.2,328.2,-0.7,1.8,2470.981,13.29,0.01,303.7
2022-08-08T02:58:03,42.805,6.029,0.0,-0.022,0.0,103.0,103.0,101.0,13.3,1505.2,323.0,-0.8,1.8,2470.974,13.29,0.022,180.0
2022-08-08T03:04:03,42.805,6.029,-0.014,-0.007,-0.033,102.0,103.0,102.0,13.3,1505.2,329.0,-0.8,1.8,2471.051,13.28,0.015,243.4
2022-08-08T03:07:03,42.805,6.029,-0.001,-0.003,-0.024,104.0,103.0,101.0,13.4,1505.2,328.7,-0.8,1.8,2471.009,13.28,0.003,198.4
2022-08-08T03:10:03,42.805,6.029,0.005,-0.006,-0.016,104.0,103.0,102.0,13.4,1505.2,323.2,-0.8,1.8,2471.013,13.28,0.007,140.2
2022-08-08T03:13:03,42.805,6.029,-0.034,-0.015,-0.037,103.0,103.0,101.0,13.4,1505.2,328.4,-0.8,1.8,2471.026,13.29,0.037,246.2
2022-08-08T03:16:03,42.805,6.029,0.0,-0.002,-0.024,104.0,103.0,101.0,13.4,1505.2,320.4,-0.7,1.8,2471.027,13.29,0.002,180.0
2022-08-08T03:19:03,42.805,6.029,-0.012,-0.027,-0.047,102.0,103.0,101.0,13.4,1505.2,320.7,-0.8,1.8,2470.995,13.29,0.029,204.0
2022-08-08T03:22:03,42.805,6.029,-0.035,0.007,-0.042,101.0,104.0,100.0,13.3,1505.2,328.1,-0.8,1.8,2471.01,13.29,0.035,281.3
2022-08-08T03:25:03,42.805,6.029,-0.023,0.004,-0.021,102.0,102.0,101.0,13.4,1505.2,322.2,-0.7,1.8,2471.024,13.29,0.023,279.9
2022-08-08T03:28:03,42.805,6.029,-0.027,-0.003,-0.03,104.0,103.0,100.0,13.3,1505.2,326.3,-0.8,1.8,2470.961,13.29,0.027,263.7
2022-08-08T03:31:03,42.805,6.029,-0.038,0.002,0.008,103.0,103.0,102.0,13.4,1505.2,320.5,-0.7,1.8,2470.984,13.29,0.038,273.0
2022-08-08T03:34:03,42.805,6.029,-0.017,-0.004,-0.01,103.0,103.0,102.0,13.4,1505.2,324.2,-0.8,1.8,2470.982,13.29,0.017,256.8
2022-08-08T03:37:03,42.805,6.029,-0.008,-0.026,-0.02,103.0,104.0,102.0,13.4,1505.2,325.3,-0.8,1.8,2471.009,13.29,0.027,197.1
2022-08-08T03:40:03,42.805,6.029,-0.016,-0.015,-0.033,103.0,103.0,101.0,13.4,1505.2,323.4,-0.8,1.8,2470.963,13.29,0.021,226.9
2022-08-08T03:43:03,42.805,6.029,-0.028,-0.004,-0.019,104.0,103.0,101.0,13.4,1505.2,323.4,-0.7,1.8,2470.955,13.29,0.028,261.9
2022-08-08T03:46:03,42.805,6.029,-0.019,0.003,0.005,103.0,104.0,101.0,13.3,1505.2,328.6,-0.8,1.8,2470.968,13.29,0.019,279.0
2022-08-08T03:49:03,42.805,6.029,-0.007,-0.015,-0.015,103.0,102.0,101.0,13.4,1505.2,328.7,-0.8,1.8,2470.991,13.29,0.016,205.0
2022-08-08T03:52:03,42.805,6.029,-0.02,0.017,-0.003,103.0,104.0,101.0,13.4,1505.2,321.0,-0.8,1.8,2470.966,13.29,0.026,310.4
2022-08-08T03:55:03,42.805,6.029,-0.021,-0.018,-0.054,102.0,104.0,101.0,13.3,1505.2,320.3,-0.7,1.8,2470.959,13.29,0.027,229.4
2022-08-08T03:58:03,42.805,6.029,-0.009,-0.007,-0.037,102.0,104.0,101.0,13.4,1505.2,325.9,-0.8,1.8,2470.991,13.29,0.011,232.1
2022-08-08T04:04:03,42.805,6.029,-0.015,-0.02,-0.021,103.0,104.0,101.0,13.4,1505.2,328.8,-0.7,1.8,2471.018,13.28,0.025,216.9
2022-08-08T04:07:03,42.805,6.029,-0.017,-0.014,-0.026,103.0,103.0,101.0,13.4,1505.2,320.6,-0.8,1.8,2471.022,13.28,0.022,230.5
2022-08-08T04:10:03,42.805,6.029,-0.015,-0.025,-0.077,104.0,104.0,100.0,13.3,1505.2,323.3,-0.7,1.8,2471.031,13.28,0.029,211.0
2022-08-08T04:13:03,42.805,6.029,-0.003,-0.009,-0.027,103.0,102.0,102.0,13.4,1505.2,324.7,-0.8,1.8,2471.001,13.29,0.009,198.4
2022-08-08T04:16:03,42.805,6.029,-0.017,0.0,-0.038,103.0,103.0,101.0,13.3,1505.2,330.6,-0.8,1.8,2470.981,13.29,0.017,270.0
2022-08-08T04:19:03,42.805,6.029,-0.02,-0.023,-0.033,103.0,103.0,101.0,13.3,1505.2,322.0,-0.8,1.8,2470.971,13.29,0.03,221.0
2022-08-08T04:22:03,42.805,6.029,-0.018,0.002,-0.009,101.0,104.0,101.0,13.4,1505.2,323.9,-0.8,1.8,2471.042,13.29,0.018,276.3
2022-08-08T04:25:03,42.805,6.029,-0.042,-0.002,-0.043,102.0,104.0,101.0,13.4,1505.2,327.9,-0.8,1.8,2471.009,13.29,0.042,267.3
2022-08-08T04:28:03,42.805,6.029,-0.015,-0.014,-0.018,102.0,104.0,101.0,13.4,1505.2,330.2,-0.7,1.8,2470.97,13.29,0.02,227.0
2022-08-08T04:31:03,42.805,6.029,-0.028,-0.004,-0.011,103.0,104.0,102.0,13.4,1505.2,323.3,-0.8,1.8,2470.97,13.29,0.028,261.9
2022-08-08T04:34:03,42.805,6.029,-0.023,-0.001,-0.022,102.0,104.0,101.0,13.3,1505.2,330.5,-0.7,1.8,2470.982,13.29,0.023,267.5
2022-08-08T04:37:03,42.805,6.029,-0.035,-0.025,-0.044,103.0,101.0,101.0,13.4,1505.2,320.9,-0.8,1.8,2470.979,13.29,0.043,234.5
2022-08-08T04:40:03,42.805,6.029,0.006,-0.026,-0.046,104.0,102.0,101.0,13.4,1505.2,332.1,-0.8,1.9,2470.984,13.29,0.026,167.0
2022-08-08T04:43:03,42.805,6.029,0.005,-0.01,-0.014,103.0,101.0,101.0,13.4,1505.2,320.9,-0.7,1.8,2470.963,13.29,0.011,153.4
2022-08-08T04:46:03,42.805,6.029,-0.026,0.014,-0.024,101.0,104.0,100.0,13.4,1505.2,322.4,-0.7,1.8,2470.985,13.29,0.029,298.3
2022-08-08T04:49:03,42.805,6.029,-0.012,-0.011,-0.025,103.0,104.0,101.0,13.4,1505.2,331.8,-0.8,1.8,2470.971,13.29,0.016,227.5
2022-08-08T04:52:03,42.805,6.029,-0.024,-0.016,-0.036,102.0,101.0,102.0,13.4,1505.2,332.0,-0.8,1.8,2470.972,13.29,0.028,236.3
2022-08-08T04:55:03,42.805,6.029,-0.02,-0.013,-0.046,103.0,102.0,101.0,13.3,1505.2,324.2,-0.8,1.8,2471.004,13.29,0.023,237.0
2022-08-08T04:58:03,42.805,6.029,-0.029,-0.028,-0.039,102.0,103.0,101.0,13.4,1505.2,325.1,-0.8,1.8,2470.965,13.29,0.04,226.0
2022-08-08T05:04:03,42.805,6.029,-0.018,-0.01,-0.03,102.0,103.0,101.0,13.3,1505.2,332.4,-0.8,1.8,2471.036,13.28,0.02,240.9
2022-08-08T05:07:03,42.805,6.029,0.008,-0.02,-0.036,104.0,104.0,100.0,13.4,1505.2,331.2,-0.8,1.8,2471.026,13.28,0.021,158.2
2022-08-08T05:10:03,42.805,6.029,-0.015,-0.023,-0.021,103.0,102.0,101.0,13.4,1505.2,320.1,-0.8,1.9,2471.027,13.28,0.027,213.1
2022-08-08T05:13:03,42.805,6.029,-0.011,-0.012,-0.037,102.0,103.0,101.0,13.4,1505.2,321.8,-0.8,1.8,2470.985,13.28,0.016,222.5
2022-08-08T05:16:03,42.805,6.029,-0.027,-0.027,-0.048,103.0,103.0,100.0,13.3,1505.2,328.3,-0.7,1.8,2470.989,13.29,0.038,225.0
2022-08-08T05:19:03,42.805,6.029,-0.012,-0.01,-0.014,103.0,100.0,102.0,13.3,1505.2,332.6,-0.8,1.8,2470.964,13.29,0.015,230.2
2022-08-08T05:22:03,42.805,6.029,-0.002,-0.023,-0.002,103.0,102.0,101.0,13.3,1505.2,326.3,-0.8,1.8,2470.948,13.29,0.023,185.0
2022-08-08T05:25:03,42.805,6.029,-0.02,-0.005,-0.029,103.0,101.0,100.0,13.4,1505.2,332.4,-0.7,1.8,2470.96,13.29,0.02,256.0
2022-08-08T05:28:03,42.805,6.029,-0.036,-0.018,-0.037,102.0,102.0,102.0,13.4,1505.2,332.1,-0.7,1.8,2470.992,13.29,0.04,243.4
2022-08-08T05:31:03,42.805,6.029,-0.007,-0.031,-0.029,103.0,103.0,101.0,13.4,1505.2,324.3,-0.8,1.8,2470.957,13.29,0.031,192.7
2022-08-08T05:34:03,42.805,6.029,-0.028,-0.025,-0.041,103.0,103.0,100.0,13.4,1505.2,327.6,-0.8,1.8,2470.942,13.29,0.037,228.2
2022-08-08T05:37:03,42.805,6.029,-0.041,-0.001,-0.012,103.0,101.0,100.0,13.3,1505.2,323.5,-0.7,1.8,2470.957,13.29,0.041,268.6
2022-08-08T05:40:03,42.805,6.029,-0.03,-0.022,0.009,103.0,102.0,103.0,13.4,1505.2,321.7,-0.7,1.8,2470.965,13.29,0.037,233.7
2022-08-08T05:43:03,42.805,6.029,-0.016,-0.009,-0.038,103.0,104.0,99.0,13.3,1505.2,329.4,-0.7,1.8,2470.953,13.29,0.018,240.6
2022-08-08T05:46:03,42.805,6.029,-0.016,-0.008,-0.007,102.0,103.0,102.0,13.3,1505.2,326.6,-0.8,1.8,2470.91,13.29,0.017,243.4
2022-08-08T05:49:03,42.805,6.029,-0.013,-0.016,-0.031,103.0,102.0,101.0,13.3,1505.2,327.5,-0.7,1.8,2470.938,13.29,0.02,219.1
2022-08-08T05:52:03,42.805,6.029,-0.025,-0.011,-0.028,103.0,104.0,100.0,13.3,1505.2,327.6,-0.7,1.8,2470.959,13.29,0.027,246.3
2022-08-08T05:55:03,42.805,6.029,-0.026,-0.012,-0.03,103.0,103.0,100.0,13.4,1505.2,329.9,-0.8,1.8,2470.91,13.29,0.028,245.2
2022-08-08T05:58:03,42.805,6.029,0.0,-0.004,-0.021,103.0,103.0,100.0,13.4,1505.2,317.9,-0.8,1.8,2470.903,13.29,0.004,180.0
2022-08-08T06:04:03,42.805,6.029,-0.014,-0.014,-0.027,103.0,103.0,101.0,13.4,1505.2,325.5,-0.8,1.8,2470.999,13.28,0.019,225.0
2022-08-08T06:07:03,42.805,6.029,-0.012,-0.026,-0.04,103.0,103.0,101.0,13.4,1505.2,318.6,-0.8,1.8,2471.006,13.28,0.028,204.8
2022-08-08T06:10:03,42.805,6.029,-0.022,0.0,-0.004,102.0,103.0,101.0,13.3,1505.2,323.9,-0.8,1.8,2470.946,13.28,0.022,270.0
2022-08-08T06:13:03,42.805,6.029,-0.014,-0.02,-0.046,104.0,102.0,101.0,13.4,1505.2,323.6,-0.7,1.8,2470.968,13.29,0.024,215.0
2022-08-08T06:16:03,42.805,6.029,-0.027,0.004,-0.004,105.0,103.0,101.0,13.3,1505.2,323.6,-0.8,1.8,2470.97,13.29,0.027,278.4
2022-08-08T06:19:03,42.805,6.029,-0.035,-0.028,-0.044,103.0,104.0,101.0,13.4,1505.2,333.4,-0.8,1.8,2470.953,13.29,0.044,231.3
2022-08-08T06:22:03,42.805,6.029,-0.011,-0.028,-0.02,102.0,103.0,100.0,13.3,1505.2,329.5,-0.7,1.8,2470.952,13.29,0.03,201.4
2022-08-08T06:25:03,42.805,6.029,-0.023,-0.019,-0.057,102.0,102.0,101.0,13.3,1505.2,318.6,-0.8,1.8,2470.944,13.29,0.029,230.4
2022-08-08T06:28:03,42.805,6.029,-0.019,0.0,-0.018,102.0,103.0,101.0,13.4,1505.2,331.6,-0.8,1.8,2470.934,13.29,0.019,270.0
2022-08-08T06:31:03,42.805,6.029,-0.02,-0.018,-0.028,103.0,102.0,101.0,13.3,1505.2,329.4,-0.7,1.8,2470.945,13.29,0.026,228.0
2022-08-08T06:34:03,42.805,6.029,-0.016,-0.008,-0.037,102.0,102.0,100.0,13.4,1505.2,329.2,-0.7,1.8,2470.909,13.29,0.017,243.4
2022-08-08T06:37:03,42.805,6.029,-0.012,0.012,-0.007,104.0,101.0,101.0,13.3,1505.2,320.9,-0.7,1.8,2470.914,13.29,0.016,315.0
2022-08-08T06:40:03,42.805,6.029,-0.007,-0.009,-0.013,103.0,102.0,101.0,13.4,1505.2,333.1,-0.8,1.8,2470.902,13.29,0.011,217.9
2022-08-08T06:43:03,42.805,6.029,-0.025,-0.011,-0.027,104.0,102.0,101.0,13.4,1505.2,328.3,-0.8,1.8,2470.956,13.29,0.027,246.3
2022-08-08T06:46:03,42.805,6.029,-0.027,-0.026,-0.062,102.0,101.0,101.0,13.3,1505.2,329.5,-0.7,1.8,2470.937,13.29,0.037,226.1
2022-08-08T06:49:03,42.805,6.029,0.019,-0.014,0.027,102.0,102.0,101.0,13.4,1505.2,329.8,-0.8,1.8,2470.902,13.29,0.023,126.4
2022-08-08T06:52:03,42.805,6.029,0.0,-0.021,-0.032,101.0,102.0,101.0,13.3,1505.2,319.2,-0.8,1.8,2470.976,13.29,0.021,180.0
2022-08-08T06:55:03,42.805,6.029,-0.008,-0.024,-0.043,102.0,102.0,101.0,13.3,1505.2,329.4,-0.8,1.8,2470.945,13.29,0.025,198.4
2022-08-08T06:58:03,42.805,6.029,-0.01,-0.01,0.018,102.0,101.0,101.0,13.4,1505.2,321.5,-0.8,1.8,2470.908,13.29,0.014,225.0
2022-08-08T07:04:03,42.805,6.029,-0.008,-0.004,-0.022,100.0,103.0,102.0,13.3,1505.2,320.7,-0.7,1.8,2470.968,13.28,0.008,243.4
2022-08-08T07:07:03,42.805,6.029,-0.002,-0.014,-0.011,105.0,101.0,101.0,13.4,1505.2,325.3,-0.7,1.8,2470.938,13.28,0.014,188.1
2022-08-08T07:10:03,42.805,6.029,0.004,-0.022,-0.022,103.0,102.0,101.0,13.4,1505.2,321.1,-0.7,1.8,2470.913,13.28,0.022,169.7
2022-08-08T07:13:03,42.805,6.029,0.007,-0.024,-0.023,102.0,102.0,102.0,13.4,1505.2,328.5,-0.8,1.8,2470.918,13.28,0.025,163.7
2022-08-08T07:16:03,42.805,6.029,-0.023,-0.006,-0.043,102.0,102.0,101.0,13.3,1505.2,319.2,-0.8,1.8,2470.96,13.29,0.023,255.4
2022-08-08T07:19:03,42.805,6.029,-0.021,0.015,0.003,103.0,102.0,100.0,13.3,1505.2,333.6,-0.7,1.8,2470.933,13.28,0.025,305.5
2022-08-08T07:22:03,42.805,6.029,-0.029,-0.011,-0.036,102.0,103.0,99.0,13.4,1505.2,323.9,-0.7,1.8,2470.942,13.29,0.031,249.2
2022-08-08T07:25:03,42.805,6.029,-0.053,0.0,-0.025,102.0,103.0,101.0,13.3,1505.2,324.7,-0.7,1.8,2470.942,13.29,0.053,270.0
2022-08-08T07:28:03,42.805,6.029,-0.026,-0.021,-0.035,102.0,102.0,101.0,13.3,1505.2,325.5,-0.8,1.8,2470.911,13.29,0.033,231.1
2022-08-08T07:31:03,42.805,6.029,-0.003,0.001,-0.031,102.0,103.0,102.0,13.4,1505.2,323.2,-0.7,1.8,2470.905,13.29,0.003,288.4
2022-08-08T07:34:03,42.805,6.029,-0.004,-0.017,-0.011,102.0,101.0,102.0,13.4,1505.2,321.2,-0.7,1.8,2470.908,13.29,0.017,193.2
2022-08-08T07:37:03,42.805,6.029,-0.041,-0.012,-0.023,102.0,102.0,102.0,13.4,1505.2,331.9,-0.8,1.8,2470.877,13.29,0.042,253.7
2022-08-08T07:40:03,42.805,6.029,-0.002,-0.003,-0.026,103.0,103.0,101.0,13.4,1505.2,326.6,-0.8,1.8,2470.934,13.29,0.003,213.7
2022-08-08T07:43:03,42.805,6.029,-0.009,-0.012,-0.03,102.0,102.0,102.0,13.3,1505.2,318.4,-0.8,1.8,2470.931,13.29,0.015,216.9
2022-08-08T07:46:03,42.805,6.029,-0.037,0.003,-0.038,102.0,102.0,101.0,13.4,1505.2,323.9,-0.8,1.8,2470.919,13.29,0.037,274.6
2022-08-08T07:49:03,42.805,6.029,-0.021,-0.02,-0.01,100.0,102.0,102.0,13.4,1505.2,324.1,-0.8,1.8,2470.905,13.29,0.028,226.4
2022-08-08T07:52:03,42.805,6.029,-0.028,0.007,-0.023,103.0,102.0,100.0,13.3,1505.2,327.6,-0.7,1.8,2470.921,13.29,0.028,284.0
2022-08-08T07:55:03,42.805,6.029,-0.009,-0.005,-0.049,103.0,102.0,101.0,13.4,1505.2,323.2,-0.7,1.8,2470.871,13.29,0.01,240.9
2022-08-08T07:58:03,42.805,6.029,-0.02,0.0,-0.008,102.0,102.0,101.0,13.4,1505.2,321.7,-0.8,1.8,2470.881,13.29,0.02,270.0
2022-08-08T08:04:03,42.805,6.029,-0.007,0.001,-0.017,102.0,102.0,101.0,13.4,1505.2,325.7,-0.8,1.8,2470.93,13.28,0.007,278.1
2022-08-08T08:07:03,42.805,6.029,-0.032,-0.03,-0.04,102.0,102.0,101.0,13.4,1505.2,319.5,-0.8,1.8,2470.921,13.28,0.043,226.9
2022-08-08T08:10:03,42.805,6.029,-0.015,-0.026,-0.02,103.0,100.0,101.0,13.3,1505.2,325.7,-0.8,1.8,2470.883,13.28,0.03,210.0
2022-08-08T08:13:03,42.805,6.029,-0.037,-0.001,-0.027,103.0,101.0,101.0,13.4,1505.2,322.2,-0.7,1.8,2470.898,13.28,0.037,268.5
2022-08-08T08:16:03,42.805,6.029,-0.003,-0.012,-0.02,100.0,101.0,102.0,13.4,1505.2,333.9,-0.7,1.8,2470.895,13.29,0.012,194.0
2022-08-08T08:19:03,42.805,6.029,-0.029,0.007,-0.009,103.0,101.0,101.0,13.4,1505.2,323.4,-0.8,1.8,2470.928,13.29,0.029,283.6
2022-08-08T08:22:03,42.805,6.029,-0.019,0.0,-0.038,103.0,101.0,101.0,13.4,1505.2,326.3,-0.8,1.8,2470.89,13.29,0.019,270.0
2022-08-08T08:25:03,42.805,6.029,-0.008,0.001,-0.043,103.0,102.0,101.0,13.4,1505.2,325.5,-0.8,1.8,2470.905,13.29,0.008,277.1
2022-08-08T08:28:03,42.805,6.029,0.016,-0.027,-0.007,102.0,102.0,102.0,13.3,1505.2,329.9,-0.8,1.8,2470.889,13.29,0.031,149.3
2022-08-08T08:31:03,42.805,6.029,-0.015,-0.011,-0.029,103.0,102.0,101.0,13.4,1505.2,317.9,-0.8,1.8,2470.852,13.29,0.018,233.7
2022-08-08T08:34:03,42.805,6.029,-0.009,0.005,-0.037,102.0,103.0,101.0,13.4,1505.2,329.6,-0.7,1.9,2470.872,13.29,0.01,299.1
2022-08-08T08:37:03,42.805,6.029,0.002,-0.025,-0.027,103.0,102.0,100.0,13.4,1505.2,323.5,-0.8,1.9,2470.863,13.29,0.025,175.4
2022-08-08T08:40:03,42.805,6.029,-0.027,-0.005,-0.028,102.0,103.0,101.0,13.4,1505.2,322.9,-0.8,1.8,2470.86,13.29,0.027,259.5
2022-08-08T08:43:03,42.805,6.029,-0.029,-0.015,-0.04,102.0,102.0,101.0,13.4,1505.2,323.3,-0.7,1.8,2470.895,13.29,0.032,242.6
2022-08-08T08:46:03,42.805,6.029,-0.011,-0.019,-0.033,103.0,103.0,102.0,13.3,1505.2,318.9,-0.8,1.8,2470.874,13.29,0.021,210.1
2022-08-08T08:49:03,42.805,6.029,-0.031,-0.012,-0.028,104.0,102.0,101.0,13.4,1505.2,327.4,-0.8,1.8,2470.846,13.29,0.033,248.8
2022-08-08T08:52:03,42.805,6.029,-0.023,-0.023,-0.035,103.0,102.0,101.0,13.4,1505.2,319.6,-0.8,1.9,2470.868,13.29,0.032,225.0
2022-08-08T08:55:03,42.805,6.029,0.0,-0.019,-0.029,102.0,102.0,101.0,13.4,1505.2,324.1,-0.8,1.8,2470.879,13.29,0.019,180.0
2022-08-08T08:58:03,42.805,6.029,-0.016,-0.012,-0.005,102.0,102.0,101.0,13.3,1505.2,319.4,-0.8,1.8,2470.878,13.29,0.02,233.1
2022-08-08T09:04:03,42.805,6.029,-0.019,0.007,-0.012,105.0,103.0,99.0,13.4,1505.2,325.0,-0.8,1.8,2470.895,13.28,0.02,290.2
2022-08-08T09:07:03,42.805,6.029,-0.001,-0.003,0.0,102.0,103.0,102.0,13.4,1505.2,323.0,-0.8,1.8,2470.908,13.28,0.003,198.4
2022-08-08T09:10:03,42.805,6.029,-0.034,-0.006,-0.025,103.0,103.0,100.0,13.3,1505.2,323.2,-0.8,1.8,2470.93,13.28,0.034,260.0
2022-08-08T09:13:03,42.805,6.029,-0.018,-0.004,-0.033,103.0,103.0,100.0,13.4,1505.2,325.3,-0.8,1.8,2470.909,13.28,0.018,257.5
2022-08-08T09:16:03,42.805,6.029,-0.03,-0.004,-0.045,102.0,102.0,102.0,13.3,1505.2,331.9,-0.8,1.8,2470.839,13.29,0.03,262.4
2022-08-08T09:19:03,42.805,6.029,0.001,-0.019,-0.027,103.0,103.0,100.0,13.3,1505.2,319.3,-0.8,1.8,2470.911,13.29,0.019,177.0
2022-08-08T09:22:03,42.805,6.029,-0.009,-0.02,-0.027,102.0,100.0,102.0,13.3,1505.2,324.9,-0.8,1.8,2470.913,13.29,0.021,204.2
2022-08-08T09:25:03,42.805,6.029,-0.012,-0.015,-0.01,101.0,101.0,102.0,13.4,1505.2,324.5,-0.7,1.8,2470.847,13.29,0.019,218.7
2022-08-08T09:28:03,42.805,6.029,-0.032,0.0,-0.023,103.0,102.0,101.0,13.3,1505.2,325.8,-0.8,1.8,2470.814,13.29,0.032,270.0
2022-08-08T09:31:03,42.805,6.029,-0.009,-0.001,-0.046,102.0,103.0,101.0,13.4,1505.2,328.6,-0.7,1.8,2470.833,13.29,0.009,263.7
2022-08-08T09:34:03,42.805,6.029,0.0,-0.01,-0.044,103.0,102.0,101.0,13.4,1505.2,324.9,-0.8,1.8,2470.862,13.29,0.01,180.0
2022-08-08T09:37:03,42.805,6.029,-0.005,-0.028,-0.013,103.0,102.0,101.0,13.4,1505.2,319.1,-0.8,1.9,2470.864,13.29,0.028,190.1
2022-08-08T09:40:03,42.805,6.029,-0.024,0.006,-0.035,103.0,102.0,101.0,13.3,1505.2,327.4,-0.8,1.8,2470.862,13.29,0.024,284.0
2022-08-08T09:43:03,42.805,6.029,-0.025,-0.002,-0.036,103.0,101.0,101.0,13.3,1505.2,324.9,-0.8,1.9,2470.845,13.29,0.025,265.4
2022-08-08T09:46:03,42.805,6.029,-0.028,-0.01,-0.027,103.0,102.0,101.0,13.4,1505.2,320.7,-0.8,1.8,2470.864,13.29,0.029,250.4
2022-08-08T09:49:03,42.805,6.029,-0.006,-0.015,-0.031,102.0,104.0,101.0,13.4,1505.2,323.2,-0.7,1.8,2470.832,13.29,0.016,201.8
2022-08-08T09:52:03,42.805,6.029,-0.02,0.009,-0.037,103.0,102.0,101.0,13.3,1505.2,331.4,-0.8,1.8,2470.827,13.29,0.021,294.2